This is the latest recevied weather packets stored in our database for station/object KB9HUO. If no packets are shown the sender has not sent any weather packets the latest 10 day(s).
| Time | Temp. | Humidity | Pressure | Rain* | Wind** | Luminosity | Snow |
|---|---|---|---|---|---|---|---|
| 1788219672 | 30.56° C | 71% | 1017.9 hPa | 0 mm | - | 12 W/m² | - |
| 1788219367 | 30.56° C | 70% | 1017.9 hPa | 0 mm | - | 14 W/m² | - |
| 1788219062 | 30.56° C | 70% | 1017.9 hPa | 0 mm | - | 15 W/m² | - |
| 1788218757 | 30.56° C | 69% | 1017.9 hPa | 0 mm | - | 16 W/m² | - |
| 1788218453 | 31.11° C | 67% | 1018.1 hPa | 0 mm | - | 17 W/m² | - |
| 1788218149 | 31.11° C | 67% | 1017.9 hPa | 0 mm | - | 18 W/m² | - |
| 1788217845 | 31.11° C | 66% | 1018 hPa | 0 mm | - | 20 W/m² | - |
| 1788217540 | 31.67° C | 66% | 1017.9 hPa | 0 mm | - | 21 W/m² | - |
| 1788217240 | 31.67° C | 65% | 1018 hPa | 0 mm | - | 24 W/m² | - |
| 1788216936 | 31.67° C | 64% | 1018 hPa | 0 mm | - | 23 W/m² | - |
| 1788216636 | 31.67° C | 65% | 1018 hPa | 0 mm | - | 24 W/m² | - |
| 1788216331 | 31.67° C | 63% | 1018 hPa | 0 mm | - | 24 W/m² | - |
| 1788216026 | 31.67° C | 65% | 1018.1 hPa | 0 mm | - | 25 W/m² | - |
| 1788215721 | 31.67° C | 63% | 1017.9 hPa | 0 mm | - | 26 W/m² | - |
| 1788215418 | 31.67° C | 61% | 1018 hPa | 0 mm | - | 26 W/m² | - |
| 1788215114 | 32.22° C | 62% | 1018.1 hPa | 0 mm | - | 27 W/m² | - |
| 1788214813 | 32.22° C | 63% | 1018.1 hPa | 0 mm | - | 28 W/m² | - |
| 1788214509 | 32.22° C | 62% | 1018 hPa | 0 mm | - | 29 W/m² | - |
| 1788214204 | 32.22° C | 64% | 1018.1 hPa | 0 mm | - | 29 W/m² | - |
| 1788213899 | 32.22° C | 62% | 1018.2 hPa | 0 mm | - | 31 W/m² | - |
| 1788213594 | 32.22° C | 62% | 1018.4 hPa | 0 mm | - | 32 W/m² | - |
| 1788213290 | 32.22° C | 62% | 1018.1 hPa | 0 mm | - | 34 W/m² | - |
| 1788212986 | 32.22° C | 62% | 1018.1 hPa | 0 mm | - | 39 W/m² | - |
| 1788212683 | 32.22° C | 63% | 1018.1 hPa | 0 mm | - | 41 W/m² | - |
| 1788212378 | 32.22° C | 62% | 1018.3 hPa | 0 mm | - | 37 W/m² | - |
* Rain latest hour (hover to see other rain measurements)
** Current wind speed in m/s (hover to see current wind gust speed)